Regional Weather Roundup
Issued by NWS

Home | Current Version | Previous Version | Text Only | Print | Product List | Glossary On
Versions: 1 2 3 4 5 6 7 8 9 10 11 12 13 14 15 16 17 18 19 20 21 22 23 24 25 26 27 28 29 30 31 32 33 34 35 36 37 38 39 40 41 42 43 44 45 46 47 48 49 50
000
ASCA42 TJSJ 070610
RWRPR
PUERTO RICO/U.S. VIRGIN ISLANDS HOURLY WEATHER ROUNDUP
NATIONAL WEATHER SERVICE SAN JUAN PR
200 AM AST THU MAY 07 2015

PRZ001-004-070700-
PUERTO RICO

CITY           SKY/WX    TMP DP  RH WIND       PRES   REMARKS
SAN JUAN LMM   PTCLDY    79  72  78 E5        30.03F
PONCE          PTCLDY    75  66  73 CALM      30.00S
CEIBA          PTCLDY    81  70  69 E12       30.05F
$$

PRZ006-007-070700-
U.S. VIRGIN ISLANDS

CITY           SKY/WX    TMP DP  RH WIND       PRES   REMARKS
CHARLOTTE AMA  CLOUDY    81  70  69 E10       30.03F
CHRISTIANSTED  MOCLDY    81  70  69 E16       30.03F
$$

HOURLY WEATHER ROUNDUP FOR THE NEWS MEDIA

CITY           SKY/WX    TMP DP  RH WIND       PRES   REMARKS
ORLANDO        PTCLDY    70  65  84 NW5       30.04F
NEW YORK       PTCLDY    56  45  66 N3        30.24F
NEWARK         CLEAR     57  48  72 NW5       30.23F
CHICAGO        PTCLDY    54  50  86 CALM      30.07R
HARTFORD       CLEAR     42  36  79 CALM      30.20F
BOSTON         CLEAR     57  30  35 SW8       30.20F
DALLAS         CLOUDY    75  68  78 S22G30    29.89F
PHILADELPHIA   PTCLDY    58  50  75 NE3       30.23F
LOS ANGELES    MOCLDY    58  51  78 W9        29.89R
WASHINGTON DC  CLOUDY    63  57  81 E3        30.19R


USA.gov is the U.S. government's official web portal to all federal, state and local government web resources and services.